Regional Weather Roundup
Issued by NWS

Home | Current Version | Previous Version | Text Only | Print | Product List | Glossary On
Versions: 1 2 3 4 5 6 7 8 9 10 11 12 13 14 15 16 17 18 19 20 21 22 23 24 25 26 27 28 29 30 31 32 33 34 35 36 37 38 39 40 41 42 43 44 45 46 47 48 49 50
000
ASUS43 KDTX 301110
RWRMI
MICHIGAN HOURLY REGIONAL WEATHER ROUNDUP
NATIONAL WEATHER SERVICE DETROIT/PONTIAC MI
700 AM EDT MON MAR 30 2015

NOTE: "FAIR" INDICATES FEW OR NO CLOUDS BELOW 12,000 FEET WITH NO
SIGNIFICANT WEATHER AND/OR OBSTRUCTION TO VISIBILITY.

MIZ047>049-052>055-059>063-066>070-074>076-081>083-301200-
SOUTHEAST LOWER MICHIGAN

CITY           SKY/WX    TMP DP  RH WIND       PRES   REMARKS
ADRIAN         CLEAR     36  29  75 W9        29.89R
ALMA           CLEAR     35  31  86 W7        29.85R
ANN ARBOR      PTCLDY    36  29  75 W9        29.86R
BAD AXE        PTCLDY    35  30  82 W15G21    29.75R
DETROIT CITY   CLOUDY    42  28  57 W15G21    29.84R
DETROIT        CLOUDY    41  30  65 W17G29    29.86R
FLINT          MOCLDY    38  30  73 W14       29.84R
GROSSE ILE     CLOUDY    39  30  70 W12G24    29.84R
HILLSDALE      CLEAR     35  30  80 W13       29.89R
HOWELL         CLEAR     35  30  82 W9        29.85R

CITY           SKY/WX    TMP DP  RH WIND       PRES   REMARKS
JACKSON        CLEAR     35  28  75 W12       29.88R
LAMBERTVILLE   CLEAR     37  32  81 W10G17    29.89R
LANSING        CLEAR     35  28  75 W12       29.88R
LAPEER         NOT AVBL
MASON          CLEAR     34  28  80 W8        29.87R
MONROE         PTCLDY    37  30  75 W10       29.86R
MT. CLEMENS    CLOUDY    40  29  65 W16G23    29.79R
PONTIAC        MOCLDY    37  28  70 W15       29.82R
PORT HOPE        N/A     36  30  79 W12G22    29.71R
PORT HURON     CLOUDY    39  30  70 W9G21     29.79R
TRI CITIES     CLEAR     37  29  72 W10       29.82R
YPSILANTI      MOCLDY    42  30  62 W18G24    29.86R
$$
MIZ043>046-050>051-056>058-064>065-071>073-077>080-301200-
SOUTHWEST LOWER MICHIGAN

CITY           SKY/WX    TMP DP  RH WIND       PRES   REMARKS
BATTLE CREEK   CLEAR     35  28  75 W8        29.91R
BENTON HARBOR  CLEAR     36  31  82 W12       29.96R
BIG RAPIDS     CLEAR     34  30  84 W9        29.83R
COLDWATER      CLEAR     33  28  81 W8        29.92R
HOLLAND        CLEAR     38  31  76 W12       29.93R
GRAND RAPIDS   PTCLDY    35  28  75 W12       29.89R
KALAMAZOO      CLEAR     36  28  73 W9        29.92R
MARSHALL       CLEAR     32  27  83 W8        29.90R
MUSKEGON       PTCLDY    39  30  70 W15G23    29.90R
$$
MIZ016>042-301200-
NORTHERN LOWER MICHIGAN

CITY           SKY/WX    TMP DP  RH WIND       PRES   REMARKS
ALPENA         PTCLDY    35  28  75 W12G22    29.69R
BEAVER ISLAND  CLOUDY    33  31  93 W12       29.73R
BELLAIRE       CLOUDY    36  30  79 SW3       29.76S
CADILLAC       CLEAR     32  29  89 W8        29.78R
CHARLEVOIX     CLOUDY    35  31  88 W14       29.77R
FRANKFORT      MOSUNNY   38  29  71 NW7       29.81R
GAYLORD        MOCLDY    32  30  92 W12       29.71R
GRAYLING       CLEAR     32  29  88 W9        29.75R
HARBOR SPRINGS CLOUDY    32  31  95 W6        29.73R
HOUGHTON LAKE  CLEAR     33  29  85 W13G20    29.75R
MANISTEE       CLEAR     36  27  69 W15       29.83S
OSCODA         CLOUDY    37  30  78 W13G20    29.71R
PELLSTON       CLOUDY    35  30  82 W10       29.72R
TRAVERSE CITY  PTCLDY    36  29  75 SW6       29.77S
$$
MIZ007>008-015-301200-
EASTERN UPPER MICHIGAN

CITY           SKY/WX    TMP DP  RH WIND       PRES   REMARKS
KINROSS        CLOUDY    32  28  86 NW14G22   29.66R
MACKINAC ISLAN CLOUDY    33  32  97 W8G16     29.69R
NEWBERRY       LGT SNOW  32  31  94 W9        29.69R
S. S. MARIE    PTCLDY    30  23  75 W20G25    29.64R
$$
MIZ004>006-011>014-085-301200-
CENTRAL UPPER MICHIGAN

CITY           SKY/WX    TMP DP  RH WIND       PRES   REMARKS
MANISTIQUE     CLOUDY    33  31  91 NW9       29.73R
ESCANABA       CLEAR     30  27  86 W8        29.75R
MENOMINEE      CLEAR     36  25  64 W8G17     29.79R
SAWYER-GWINN   FLURRIES  32  30  93 N6        29.74R
$$
MIZ001>003-009>011-084-301200-
WESTERN UPPER MICHIGAN

CITY           SKY/WX    TMP DP  RH WIND       PRES   REMARKS
IRON MOUNTAIN  CLEAR     36  25  64 W14G21    29.75R
HOUGHTON       CLEAR     30  26  85 NW16      29.76R
COPPER HARBOR    N/A     31  25  78 N12       29.76R
IRONWOOD       CLEAR     32  27  80 W9        29.83R
$$

ABBREVIATIONS USED IN REMARKS
   TC - TEMPERATURE IN CELSIUS
  WCI - WIND CHILL INDEX
   HX - HEAT INDEX
  VSB - VISIBILITY



USA.gov is the U.S. government's official web portal to all federal, state and local government web resources and services.